Year,Month,Day,Hour,Minute,Value (Times are PST for temperature in C)
2018,07,01,00,00,13.60
2018,07,01,00,01,13.60
2018,07,01,00,02,13.60
2018,07,01,00,03,13.60
2018,07,01,00,04,13.60
2018,07,01,00,05,13.60
2018,07,01,00,06,13.60
2018,07,01,00,07,13.60
2018,07,01,00,08,13.60
2018,07,01,00,09,13.60
2018,07,01,00,10,13.60
2018,07,01,00,11,13.50
2018,07,01,00,12,13.50
2018,07,01,00,13,13.40
2018,07,01,00,14,13.30
2018,07,01,00,15,13.20
2018,07,01,00,16,13.20
2018,07,01,00,17,13.20
2018,07,01,00,18,13.30
2018,07,01,00,19,13.40
2018,07,01,00,20,13.50
2018,07,01,00,21,13.50
2018,07,01,00,22,13.50
2018,07,01,00,23,13.50
2018,07,01,00,24,13.50
2018,07,01,00,25,13.40
2018,07,01,00,26,13.30
2018,07,01,00,27,13.40
2018,07,01,00,28,13.40
2018,07,01,00,29,13.50
2018,07,01,00,30,13.50
2018,07,01,00,31,13.40
2018,07,01,00,32,13.40
2018,07,01,00,33,13.40
2018,07,01,00,34,13.40
2018,07,01,00,35,13.50
2018,07,01,00,36,13.60
2018,07,01,00,37,13.60
2018,07,01,00,38,13.70
2018,07,01,00,39,13.80
2018,07,01,00,40,13.90
2018,07,01,00,41,13.90
2018,07,01,00,42,14.00
2018,07,01,00,43,14.10
2018,07,01,00,44,14.00
2018,07,01,00,45,14.00
2018,07,01,00,46,14.00
2018,07,01,00,47,14.00
2018,07,01,00,48,14.00
2018,07,01,00,49,13.90
2018,07,01,00,50,13.90
2018,07,01,00,51,13.90
2018,07,01,00,52,13.80
2018,07,01,00,53,13.70
2018,07,01,00,54,13.70
2018,07,01,00,55,13.70
2018,07,01,00,56,13.70
2018,07,01,00,57,13.70
2018,07,01,00,58,13.60
2018,07,01,00,59,13.60
2018,07,01,01,00,13.60
2018,07,01,01,01,13.70
2018,07,01,01,02,13.90
2018,07,01,01,03,14.00
2018,07,01,01,04,14.10
2018,07,01,01,05,14.30
2018,07,01,01,06,14.40
2018,07,01,01,07,14.40
2018,07,01,01,08,14.50
2018,07,01,01,09,14.60
2018,07,01,01,10,14.60
2018,07,01,01,11,14.60
2018,07,01,01,12,14.60
2018,07,01,01,13,14.60
2018,07,01,01,14,14.60
2018,07,01,01,15,14.50
2018,07,01,01,16,14.50
2018,07,01,01,17,14.30
2018,07,01,01,18,14.30
2018,07,01,01,19,14.40
2018,07,01,01,20,14.50
2018,07,01,01,21,14.50
2018,07,01,01,22,14.60
2018,07,01,01,23,14.60
2018,07,01,01,24,14.60
2018,07,01,01,25,14.50
2018,07,01,01,26,14.40
2018,07,01,01,27,14.40
2018,07,01,01,28,14.30
2018,07,01,01,29,14.20
2018,07,01,01,30,14.10
2018,07,01,01,31,14.00
2018,07,01,01,32,14.00
2018,07,01,01,33,13.90
2018,07,01,01,34,13.80
2018,07,01,01,35,13.80
2018,07,01,01,36,13.70
2018,07,01,01,37,13.60
2018,07,01,01,38,13.60
2018,07,01,01,39,13.60
2018,07,01,01,40,13.80
2018,07,01,01,41,13.90
2018,07,01,01,42,14.00
2018,07,01,01,43,14.20
2018,07,01,01,44,14.30
2018,07,01,01,45,14.30
2018,07,01,01,46,14.30
2018,07,01,01,47,14.20
2018,07,01,01,48,14.20
2018,07,01,01,49,14.10
2018,07,01,01,50,14.20
2018,07,01,01,51,14.20
2018,07,01,01,52,14.20
2018,07,01,01,53,14.20
2018,07,01,01,54,14.20
2018,07,01,01,55,14.20
2018,07,01,01,56,14.20
2018,07,01,01,57,14.10
2018,07,01,01,58,14.10
2018,07,01,01,59,13.90
2018,07,01,02,00,13.90
2018,07,01,02,01,14.00
2018,07,01,02,02,13.90
2018,07,01,02,03,13.80
2018,07,01,02,04,13.70
2018,07,01,02,05,13.70
2018,07,01,02,06,13.70
2018,07,01,02,07,13.70
2018,07,01,02,08,13.70
2018,07,01,02,09,13.60
2018,07,01,02,10,13.50
2018,07,01,02,11,13.50
2018,07,01,02,12,13.40
2018,07,01,02,13,13.40
2018,07,01,02,14,13.40
2018,07,01,02,15,13.50
2018,07,01,02,16,13.50
2018,07,01,02,17,13.50
2018,07,01,02,18,13.50
2018,07,01,02,19,13.60
2018,07,01,02,20,13.70
2018,07,01,02,21,13.70
2018,07,01,02,22,13.70
2018,07,01,02,23,13.70
2018,07,01,02,24,13.60
2018,07,01,02,25,13.60
2018,07,01,02,26,13.60
2018,07,01,02,27,13.50
2018,07,01,02,28,13.50
2018,07,01,02,29,13.50
2018,07,01,02,30,13.50
2018,07,01,02,31,13.50
2018,07,01,02,32,13.50
2018,07,01,02,33,13.50
2018,07,01,02,34,13.30
2018,07,01,02,35,13.30
2018,07,01,02,36,13.30
2018,07,01,02,37,13.30
2018,07,01,02,38,13.30
2018,07,01,02,39,13.50
2018,07,01,02,40,13.60
2018,07,01,02,41,13.60
2018,07,01,02,42,13.40
2018,07,01,02,43,13.20
2018,07,01,02,44,13.00
2018,07,01,02,45,12.90
2018,07,01,02,46,12.90
2018,07,01,02,47,13.00
2018,07,01,02,48,13.20
2018,07,01,02,49,13.40
2018,07,01,02,50,13.50
2018,07,01,02,51,13.50
2018,07,01,02,52,13.40
2018,07,01,02,53,13.40
2018,07,01,02,54,13.30
2018,07,01,02,55,13.30
2018,07,01,02,56,13.40
2018,07,01,02,57,13.40
2018,07,01,02,58,13.40
2018,07,01,02,59,13.50
2018,07,01,03,00,13.50
2018,07,01,03,01,13.50
2018,07,01,03,02,13.50
2018,07,01,03,03,13.50
2018,07,01,03,04,13.50
2018,07,01,03,05,13.50
2018,07,01,03,06,13.50
2018,07,01,03,07,13.40
2018,07,01,03,08,13.30
2018,07,01,03,09,13.30
2018,07,01,03,10,13.30
2018,07,01,03,11,13.30
2018,07,01,03,12,13.20
2018,07,01,03,13,13.20
2018,07,01,03,14,13.30
2018,07,01,03,15,13.30
2018,07,01,03,16,13.30
2018,07,01,03,17,13.40
2018,07,01,03,18,13.40
2018,07,01,03,19,13.50
2018,07,01,03,20,13.50
2018,07,01,03,21,13.50
2018,07,01,03,22,13.50
2018,07,01,03,23,13.60
2018,07,01,03,24,13.60
2018,07,01,03,25,13.60
2018,07,01,03,26,13.70
2018,07,01,03,27,13.80
2018,07,01,03,28,13.90
2018,07,01,03,29,14.00
2018,07,01,03,30,14.10
2018,07,01,03,31,14.10
2018,07,01,03,32,14.10
2018,07,01,03,33,14.10
2018,07,01,03,34,14.00
2018,07,01,03,35,13.90
2018,07,01,03,36,14.00
2018,07,01,03,37,14.10
2018,07,01,03,38,14.00
2018,07,01,03,39,14.00
2018,07,01,03,40,14.00
2018,07,01,03,41,14.10
2018,07,01,03,42,14.00
2018,07,01,03,43,14.10
2018,07,01,03,44,14.00
2018,07,01,03,45,13.90
2018,07,01,03,46,13.80
2018,07,01,03,47,13.70
2018,07,01,03,48,13.60
2018,07,01,03,49,13.60
2018,07,01,03,50,13.50
2018,07,01,03,51,13.40
2018,07,01,03,52,13.40
2018,07,01,03,53,13.40
2018,07,01,03,54,13.40
2018,07,01,03,55,13.40
2018,07,01,03,56,13.40
2018,07,01,03,57,13.30
2018,07,01,03,58,13.30
2018,07,01,03,59,13.20
2018,07,01,04,00,13.30
2018,07,01,04,01,13.30
2018,07,01,04,02,13.40
2018,07,01,04,03,13.40
2018,07,01,04,04,13.40
2018,07,01,04,05,13.30
2018,07,01,04,06,13.40
2018,07,01,04,07,13.40
2018,07,01,04,08,13.40
2018,07,01,04,09,13.40
2018,07,01,04,10,13.40
2018,07,01,04,11,13.30
2018,07,01,04,12,13.40
2018,07,01,04,13,13.40
2018,07,01,04,14,13.40
2018,07,01,04,15,13.30
2018,07,01,04,16,13.40
2018,07,01,04,17,13.60
2018,07,01,04,18,13.70
2018,07,01,04,19,13.80
2018,07,01,04,20,13.80
2018,07,01,04,21,13.90
2018,07,01,04,22,13.90
2018,07,01,04,23,13.90
2018,07,01,04,24,14.00
2018,07,01,04,25,14.10
2018,07,01,04,26,14.10
2018,07,01,04,27,14.10
2018,07,01,04,28,14.00
2018,07,01,04,29,13.90
2018,07,01,04,30,13.90
2018,07,01,04,31,13.70
2018,07,01,04,32,13.70
2018,07,01,04,33,13.80
2018,07,01,04,34,13.90
2018,07,01,04,35,13.90
2018,07,01,04,36,13.70
2018,07,01,04,37,13.50
2018,07,01,04,38,13.50
2018,07,01,04,39,13.60
2018,07,01,04,40,13.70
2018,07,01,04,41,13.90
2018,07,01,04,42,14.00
2018,07,01,04,43,14.00
2018,07,01,04,44,14.10
2018,07,01,04,45,14.10
2018,07,01,04,46,14.00
2018,07,01,04,47,14.00
2018,07,01,04,48,14.00
2018,07,01,04,49,14.00
2018,07,01,04,50,14.00
2018,07,01,04,51,13.80
2018,07,01,04,52,13.70
2018,07,01,04,53,13.70
2018,07,01,04,54,13.60
2018,07,01,04,55,13.70
2018,07,01,04,56,13.70
2018,07,01,04,57,13.70
2018,07,01,04,58,13.60
2018,07,01,04,59,13.60
2018,07,01,05,00,13.60
2018,07,01,05,01,13.60
2018,07,01,05,02,13.60
2018,07,01,05,03,13.60
2018,07,01,05,04,13.70
2018,07,01,05,05,13.50
2018,07,01,05,06,13.50
2018,07,01,05,07,13.40
2018,07,01,05,08,13.40
2018,07,01,05,09,13.30
2018,07,01,05,10,13.30
2018,07,01,05,11,13.30
2018,07,01,05,12,13.40
2018,07,01,05,13,13.60
2018,07,01,05,14,13.60
2018,07,01,05,15,13.50
2018,07,01,05,16,13.50
2018,07,01,05,17,13.50
2018,07,01,05,18,13.50
2018,07,01,05,19,13.40
2018,07,01,05,20,13.40
2018,07,01,05,21,13.40
2018,07,01,05,22,13.40
2018,07,01,05,23,13.40
2018,07,01,05,24,13.40
2018,07,01,05,25,13.40
2018,07,01,05,26,13.40
2018,07,01,05,27,13.50
2018,07,01,05,28,13.60
2018,07,01,05,29,13.60
2018,07,01,05,30,13.60
2018,07,01,05,31,13.70
2018,07,01,05,32,13.70
2018,07,01,05,33,13.70
2018,07,01,05,34,13.60
2018,07,01,05,35,13.60
2018,07,01,05,36,13.70
2018,07,01,05,37,13.80
2018,07,01,05,38,13.80
2018,07,01,05,39,13.80
2018,07,01,05,40,13.80
2018,07,01,05,41,13.80
2018,07,01,05,42,13.80
2018,07,01,05,43,13.80
2018,07,01,05,44,13.80
2018,07,01,05,45,13.70
2018,07,01,05,46,13.60
2018,07,01,05,47,13.60
2018,07,01,05,48,13.60
2018,07,01,05,49,13.50
2018,07,01,05,50,13.50
2018,07,01,05,51,13.40
2018,07,01,05,52,13.40
2018,07,01,05,53,13.40
2018,07,01,05,54,13.30
2018,07,01,05,55,13.30
2018,07,01,05,56,13.30
2018,07,01,05,57,13.30
2018,07,01,05,58,13.30
2018,07,01,05,59,13.30
2018,07,01,06,00,13.20
2018,07,01,06,01,13.20
2018,07,01,06,02,13.20
2018,07,01,06,03,13.20
2018,07,01,06,04,13.20
2018,07,01,06,05,13.20
2018,07,01,06,06,13.20
2018,07,01,06,07,13.20
2018,07,01,06,08,13.10
2018,07,01,06,09,13.10
2018,07,01,06,10,13.10
2018,07,01,06,11,13.10
2018,07,01,06,12,13.10
2018,07,01,06,13,13.20
2018,07,01,06,14,13.20
2018,07,01,06,15,13.20
2018,07,01,06,16,13.20
2018,07,01,06,17,13.20
2018,07,01,06,18,13.30
2018,07,01,06,19,13.40
2018,07,01,06,20,13.40
2018,07,01,06,21,13.50
2018,07,01,06,22,13.60
2018,07,01,06,23,13.60
2018,07,01,06,24,13.40
2018,07,01,06,25,13.30
2018,07,01,06,26,13.30
2018,07,01,06,27,13.40
2018,07,01,06,28,13.50
2018,07,01,06,29,13.60
2018,07,01,06,30,13.60
2018,07,01,06,31,13.50
2018,07,01,06,32,13.60
2018,07,01,06,33,13.60
2018,07,01,06,34,13.60
2018,07,01,06,35,13.60
2018,07,01,06,36,13.70
2018,07,01,06,37,13.70
2018,07,01,06,38,13.70
2018,07,01,06,39,13.60
2018,07,01,06,40,13.60
2018,07,01,06,41,13.60
2018,07,01,06,42,13.40
2018,07,01,06,43,13.30
2018,07,01,06,44,13.40
2018,07,01,06,45,13.40
2018,07,01,06,46,13.40
2018,07,01,06,47,13.30
2018,07,01,06,48,13.30
2018,07,01,06,49,13.30
2018,07,01,06,50,13.30
2018,07,01,06,51,13.30
2018,07,01,06,52,13.30
2018,07,01,06,53,13.30
2018,07,01,06,54,13.30
2018,07,01,06,55,13.30
2018,07,01,06,56,13.30
2018,07,01,06,57,13.50
2018,07,01,06,58,13.60
2018,07,01,06,59,13.60
2018,07,01,07,00,13.70
2018,07,01,07,01,13.90
2018,07,01,07,02,14.00
2018,07,01,07,03,14.10
2018,07,01,07,04,14.10
2018,07,01,07,05,14.00
2018,07,01,07,06,13.90
2018,07,01,07,07,13.80
2018,07,01,07,08,13.70
2018,07,01,07,09,13.70
2018,07,01,07,10,13.60
2018,07,01,07,11,13.60
2018,07,01,07,12,13.60
2018,07,01,07,13,13.60
2018,07,01,07,14,13.50
2018,07,01,07,15,13.50
2018,07,01,07,16,13.50
2018,07,01,07,17,13.50
2018,07,01,07,18,13.60
2018,07,01,07,19,13.60
2018,07,01,07,20,13.60
2018,07,01,07,21,13.60
2018,07,01,07,22,13.60
2018,07,01,07,23,13.60
2018,07,01,07,24,13.60
2018,07,01,07,25,13.60
2018,07,01,07,26,13.60
2018,07,01,07,27,13.50
2018,07,01,07,28,13.50
2018,07,01,07,29,13.60
2018,07,01,07,30,13.60
2018,07,01,07,31,13.60
2018,07,01,07,32,13.60
2018,07,01,07,33,13.60
2018,07,01,07,34,13.60
2018,07,01,07,35,13.60
2018,07,01,07,36,13.70
2018,07,01,07,37,13.70
2018,07,01,07,38,13.70
2018,07,01,07,39,13.70
2018,07,01,07,40,13.60
2018,07,01,07,41,13.60
2018,07,01,07,42,13.60
2018,07,01,07,43,13.50
2018,07,01,07,44,13.40
2018,07,01,07,45,13.40
2018,07,01,07,46,13.40
2018,07,01,07,47,13.30
2018,07,01,07,48,13.30
2018,07,01,07,49,13.30
2018,07,01,07,50,13.30
2018,07,01,07,51,13.30
2018,07,01,07,52,13.20
2018,07,01,07,53,13.20
2018,07,01,07,54,13.20
2018,07,01,07,55,13.20
2018,07,01,07,56,13.20
2018,07,01,07,57,13.20
2018,07,01,07,58,13.20
2018,07,01,07,59,13.30
2018,07,01,08,00,13.30
2018,07,01,08,01,13.30
2018,07,01,08,02,13.30
2018,07,01,08,03,13.20
2018,07,01,08,04,13.20
2018,07,01,08,05,13.10
2018,07,01,08,06,13.10
2018,07,01,08,07,13.10
2018,07,01,08,08,13.00
2018,07,01,08,09,13.00
2018,07,01,08,10,13.00
2018,07,01,08,11,13.00
2018,07,01,08,12,13.00
2018,07,01,08,13,12.90
2018,07,01,08,14,12.90
2018,07,01,08,15,12.90
2018,07,01,08,16,13.00
2018,07,01,08,17,12.90
2018,07,01,08,18,13.00
2018,07,01,08,19,13.00
2018,07,01,08,20,13.10
2018,07,01,08,21,13.10
2018,07,01,08,22,13.10
2018,07,01,08,23,13.00
2018,07,01,08,24,13.00
2018,07,01,08,25,13.00
2018,07,01,08,26,13.10
2018,07,01,08,27,13.10
2018,07,01,08,28,13.10
2018,07,01,08,29,13.10
2018,07,01,08,30,13.10
2018,07,01,08,31,13.10
2018,07,01,08,32,13.00
2018,07,01,08,33,13.10
2018,07,01,08,34,13.00
2018,07,01,08,35,13.00
2018,07,01,08,36,13.00
2018,07,01,08,37,13.00
2018,07,01,08,38,13.00
2018,07,01,08,39,12.90
2018,07,01,08,40,12.90
2018,07,01,08,41,12.90
2018,07,01,08,42,13.00
2018,07,01,08,43,12.90
2018,07,01,08,44,13.00
2018,07,01,08,45,13.00
2018,07,01,08,46,13.00
2018,07,01,08,47,13.00
2018,07,01,08,48,13.00
2018,07,01,08,49,13.00
2018,07,01,08,50,12.90
2018,07,01,08,51,12.90
2018,07,01,08,52,13.00
2018,07,01,08,53,12.90
2018,07,01,08,54,13.00
2018,07,01,08,55,12.90
2018,07,01,08,56,12.90
2018,07,01,08,57,12.90
2018,07,01,08,58,13.00
2018,07,01,08,59,13.10
2018,07,01,09,00,13.10
2018,07,01,09,01,13.10
2018,07,01,09,02,13.10
2018,07,01,09,03,13.10
2018,07,01,09,04,13.10
2018,07,01,09,05,13.10
2018,07,01,09,06,13.10
2018,07,01,09,07,13.10
2018,07,01,09,08,13.20
2018,07,01,09,09,13.20
2018,07,01,09,10,13.20
2018,07,01,09,11,13.10
2018,07,01,09,12,13.00
2018,07,01,09,13,13.00
2018,07,01,09,14,13.00
2018,07,01,09,15,12.90
2018,07,01,09,16,12.90
2018,07,01,09,17,12.90
2018,07,01,09,18,12.80
2018,07,01,09,19,12.80
2018,07,01,09,20,12.80
2018,07,01,09,21,12.80
2018,07,01,09,22,12.80
2018,07,01,09,23,12.80
2018,07,01,09,24,12.90
2018,07,01,09,25,12.90
2018,07,01,09,26,12.90
2018,07,01,09,27,12.80
2018,07,01,09,28,12.70
2018,07,01,09,29,12.50
2018,07,01,09,30,12.40
2018,07,01,09,31,12.30
2018,07,01,09,32,12.20
2018,07,01,09,33,12.20
2018,07,01,09,34,12.10
2018,07,01,09,35,12.10
2018,07,01,09,36,12.00
2018,07,01,09,37,11.90
2018,07,01,09,38,11.90
2018,07,01,09,39,11.90
2018,07,01,09,40,11.90
2018,07,01,09,41,11.90
2018,07,01,09,42,11.90
2018,07,01,09,43,11.90
2018,07,01,09,44,11.90
2018,07,01,09,45,11.80
2018,07,01,09,46,11.80
2018,07,01,09,47,11.80
2018,07,01,09,48,11.80
2018,07,01,09,49,11.80
2018,07,01,09,50,12.00
2018,07,01,09,51,12.10
2018,07,01,09,52,12.20
2018,07,01,09,53,12.10
2018,07,01,09,54,12.20
2018,07,01,09,55,12.30
2018,07,01,09,56,12.30
2018,07,01,09,57,12.30
2018,07,01,09,58,12.30
2018,07,01,09,59,12.30
2018,07,01,10,00,12.30
2018,07,01,10,01,12.40
2018,07,01,10,02,12.40
2018,07,01,10,03,12.30
2018,07,01,10,04,12.40
2018,07,01,10,05,12.60
2018,07,01,10,06,12.70
2018,07,01,10,07,12.60
2018,07,01,10,08,12.60
2018,07,01,10,09,12.80
2018,07,01,10,10,12.80
2018,07,01,10,11,12.80
2018,07,01,10,12,12.80
2018,07,01,10,13,12.90
2018,07,01,10,14,12.80
2018,07,01,10,15,12.80
2018,07,01,10,16,12.80
2018,07,01,10,17,12.90
2018,07,01,10,18,13.00
2018,07,01,10,19,13.10
2018,07,01,10,20,13.20
2018,07,01,10,21,13.30
2018,07,01,10,22,13.30
2018,07,01,10,23,13.20
2018,07,01,10,24,13.20
2018,07,01,10,25,13.30
2018,07,01,10,26,13.30
2018,07,01,10,27,13.20
2018,07,01,10,28,13.20
2018,07,01,10,29,13.20
2018,07,01,10,30,13.30
2018,07,01,10,31,13.40
2018,07,01,10,32,13.50
2018,07,01,10,33,13.50
2018,07,01,10,34,13.40
2018,07,01,10,35,13.30
2018,07,01,10,36,13.10
2018,07,01,10,37,12.90
2018,07,01,10,38,12.90
2018,07,01,10,39,12.90
2018,07,01,10,40,13.00
2018,07,01,10,41,13.20
2018,07,01,10,42,13.20
2018,07,01,10,43,13.20
2018,07,01,10,44,13.30
2018,07,01,10,45,13.50
2018,07,01,10,46,13.60
2018,07,01,10,47,13.60
2018,07,01,10,48,13.60
2018,07,01,10,49,13.50
2018,07,01,10,50,13.50
2018,07,01,10,51,13.60
2018,07,01,10,52,13.70
2018,07,01,10,53,13.80
2018,07,01,10,54,13.90
2018,07,01,10,55,13.80
2018,07,01,10,56,13.90
2018,07,01,10,57,13.90
2018,07,01,10,58,13.90
2018,07,01,10,59,14.00
2018,07,01,11,00,14.10
2018,07,01,11,01,14.10
2018,07,01,11,02,14.10
2018,07,01,11,03,14.00
2018,07,01,11,04,14.00
2018,07,01,11,05,14.20
2018,07,01,11,06,14.30
2018,07,01,11,07,14.20
2018,07,01,11,08,14.20
2018,07,01,11,09,14.40
2018,07,01,11,10,14.40
2018,07,01,11,11,14.30
2018,07,01,11,12,14.20
2018,07,01,11,13,14.10
2018,07,01,11,14,14.00
2018,07,01,11,15,14.10
2018,07,01,11,16,14.20
2018,07,01,11,17,14.20
2018,07,01,11,18,14.20
2018,07,01,11,19,14.30
2018,07,01,11,20,14.40
2018,07,01,11,21,14.40
2018,07,01,11,22,14.40
2018,07,01,11,23,14.50
2018,07,01,11,24,14.60
2018,07,01,11,25,14.70
2018,07,01,11,26,14.70
2018,07,01,11,27,14.80
2018,07,01,11,28,14.90
2018,07,01,11,29,14.70
2018,07,01,11,30,14.70
2018,07,01,11,31,14.70
2018,07,01,11,32,14.60
2018,07,01,11,33,14.50
2018,07,01,11,34,14.40
2018,07,01,11,35,14.10
2018,07,01,11,36,14.20
2018,07,01,11,37,14.30
2018,07,01,11,38,14.20
2018,07,01,11,39,14.20
2018,07,01,11,40,14.20
2018,07,01,11,41,14.10
2018,07,01,11,42,14.10
2018,07,01,11,43,14.10
2018,07,01,11,44,14.10
2018,07,01,11,45,14.00
2018,07,01,11,46,13.90
2018,07,01,11,47,13.80
2018,07,01,11,48,13.70
2018,07,01,11,49,13.70
2018,07,01,11,50,13.80
2018,07,01,11,51,13.90
2018,07,01,11,52,13.80
2018,07,01,11,53,13.70
2018,07,01,11,54,13.80
2018,07,01,11,55,13.90
2018,07,01,11,56,13.90
2018,07,01,11,57,13.90
2018,07,01,11,58,13.80
2018,07,01,11,59,13.80
2018,07,01,12,00,13.70
2018,07,01,12,01,13.80
2018,07,01,12,02,13.90
2018,07,01,12,03,13.90
2018,07,01,12,04,14.00
2018,07,01,12,05,13.90
2018,07,01,12,06,13.80
2018,07,01,12,07,13.90
2018,07,01,12,08,13.90
2018,07,01,12,09,13.90
2018,07,01,12,10,13.90
2018,07,01,12,11,13.90
2018,07,01,12,12,13.80
2018,07,01,12,13,13.80
2018,07,01,12,14,13.70
2018,07,01,12,15,13.70
2018,07,01,12,16,13.80
2018,07,01,12,17,13.80
2018,07,01,12,18,13.80
2018,07,01,12,19,13.90
2018,07,01,12,20,14.00
2018,07,01,12,21,13.90
2018,07,01,12,22,13.80
2018,07,01,12,23,13.80
2018,07,01,12,24,13.90
2018,07,01,12,25,13.90
2018,07,01,12,26,13.90
2018,07,01,12,27,13.80
2018,07,01,12,28,13.80
2018,07,01,12,29,13.90
2018,07,01,12,30,13.80
2018,07,01,12,31,13.80
2018,07,01,12,32,13.80
2018,07,01,12,33,13.80
2018,07,01,12,34,13.70
2018,07,01,12,35,13.80
2018,07,01,12,36,13.80
2018,07,01,12,37,13.90
2018,07,01,12,38,14.00
2018,07,01,12,39,14.00
2018,07,01,12,40,14.00
2018,07,01,12,41,13.90
2018,07,01,12,42,13.80
2018,07,01,12,43,13.90
2018,07,01,12,44,13.90
2018,07,01,12,45,13.90
2018,07,01,12,46,13.80
2018,07,01,12,47,13.80
2018,07,01,12,48,13.90
2018,07,01,12,49,13.90
2018,07,01,12,50,13.90
2018,07,01,12,51,13.80
2018,07,01,12,52,13.80
2018,07,01,12,53,13.90
2018,07,01,12,54,13.90
2018,07,01,12,55,14.00
2018,07,01,12,56,14.00
2018,07,01,12,57,14.10
2018,07,01,12,58,14.10
2018,07,01,12,59,14.10
2018,07,01,13,00,14.00
2018,07,01,13,01,14.10
2018,07,01,13,02,14.10
2018,07,01,13,03,14.30
2018,07,01,13,04,14.30
2018,07,01,13,05,14.20
2018,07,01,13,06,14.10
2018,07,01,13,07,14.10
2018,07,01,13,08,14.20
2018,07,01,13,09,14.10
2018,07,01,13,10,14.30
2018,07,01,13,11,14.40
2018,07,01,13,12,14.30
2018,07,01,13,13,14.20
2018,07,01,13,14,14.20
2018,07,01,13,15,14.20
2018,07,01,13,16,14.10
2018,07,01,13,17,14.00
2018,07,01,13,18,14.00
2018,07,01,13,19,14.10
2018,07,01,13,20,14.10
2018,07,01,13,21,14.20
2018,07,01,13,22,14.10
2018,07,01,13,23,14.30
2018,07,01,13,24,14.30
2018,07,01,13,25,14.30
2018,07,01,13,26,14.30
2018,07,01,13,27,14.20
2018,07,01,13,28,14.20
2018,07,01,13,29,14.10
2018,07,01,13,30,14.20
2018,07,01,13,31,14.30
2018,07,01,13,32,14.30
2018,07,01,13,33,14.30
2018,07,01,13,34,14.30
2018,07,01,13,35,14.20
2018,07,01,13,36,14.10
2018,07,01,13,37,14.00
2018,07,01,13,38,14.10
2018,07,01,13,39,14.10
2018,07,01,13,40,14.10
2018,07,01,13,41,14.20
2018,07,01,13,42,14.40
2018,07,01,13,43,14.30
2018,07,01,13,44,14.20
2018,07,01,13,45,14.10
2018,07,01,13,46,14.20
2018,07,01,13,47,14.10
2018,07,01,13,48,14.10
2018,07,01,13,49,14.20
2018,07,01,13,50,14.20
2018,07,01,13,51,14.10
2018,07,01,13,52,14.20
2018,07,01,13,53,14.20
2018,07,01,13,54,14.30
2018,07,01,13,55,14.30
2018,07,01,13,56,14.30
2018,07,01,13,57,14.30
2018,07,01,13,58,14.30
2018,07,01,13,59,14.30
2018,07,01,14,00,14.40
2018,07,01,14,01,14.40
2018,07,01,14,02,14.30
2018,07,01,14,03,14.30
2018,07,01,14,04,14.30
2018,07,01,14,05,14.30
2018,07,01,14,06,14.40
2018,07,01,14,07,14.40
2018,07,01,14,08,14.40
2018,07,01,14,09,14.50
2018,07,01,14,10,14.50
2018,07,01,14,11,14.40
2018,07,01,14,12,14.40
2018,07,01,14,13,14.40
2018,07,01,14,14,14.40
2018,07,01,14,15,14.50
2018,07,01,14,16,14.50
2018,07,01,14,17,14.50
2018,07,01,14,18,14.60
2018,07,01,14,19,14.50
2018,07,01,14,20,14.50
2018,07,01,14,21,14.60
2018,07,01,14,22,14.70
2018,07,01,14,23,14.60
2018,07,01,14,24,14.50
2018,07,01,14,25,14.40
2018,07,01,14,26,14.40
2018,07,01,14,27,14.40
2018,07,01,14,28,14.40
2018,07,01,14,29,14.40
2018,07,01,14,30,14.50
2018,07,01,14,31,14.60
2018,07,01,14,32,14.60
2018,07,01,14,33,14.60
2018,07,01,14,34,14.70
2018,07,01,14,35,14.90
2018,07,01,14,36,15.00
2018,07,01,14,37,14.90
2018,07,01,14,38,14.70
2018,07,01,14,39,14.70
2018,07,01,14,40,14.60
2018,07,01,14,41,14.50
2018,07,01,14,42,14.50
2018,07,01,14,43,14.60
2018,07,01,14,44,14.60
2018,07,01,14,45,14.60
2018,07,01,14,46,14.60
2018,07,01,14,47,14.60
2018,07,01,14,48,14.60
2018,07,01,14,49,14.60
2018,07,01,14,50,14.60
2018,07,01,14,51,14.60
2018,07,01,14,52,14.50
2018,07,01,14,53,14.50
2018,07,01,14,54,14.60
2018,07,01,14,55,14.60
2018,07,01,14,56,14.70
2018,07,01,14,57,14.60
2018,07,01,14,58,14.50
2018,07,01,14,59,14.40
2018,07,01,15,00,14.40
2018,07,01,15,01,14.70
2018,07,01,15,02,14.80
2018,07,01,15,03,14.70
2018,07,01,15,04,14.80
2018,07,01,15,05,15.10
2018,07,01,15,06,14.80
2018,07,01,15,07,14.80
2018,07,01,15,08,14.60
2018,07,01,15,09,14.60
2018,07,01,15,10,14.60
2018,07,01,15,11,14.60
2018,07,01,15,12,14.70
2018,07,01,15,13,14.80
2018,07,01,15,14,14.80
2018,07,01,15,15,14.70
2018,07,01,15,16,14.60
2018,07,01,15,17,14.60
2018,07,01,15,18,14.50
2018,07,01,15,19,14.50
2018,07,01,15,20,14.60
2018,07,01,15,21,14.50
2018,07,01,15,22,14.60
2018,07,01,15,23,14.60
2018,07,01,15,24,14.70
2018,07,01,15,25,14.80
2018,07,01,15,26,14.70
2018,07,01,15,27,14.70
2018,07,01,15,28,14.70
2018,07,01,15,29,14.70
2018,07,01,15,30,14.60
2018,07,01,15,31,14.50
2018,07,01,15,32,14.60
2018,07,01,15,33,14.70
2018,07,01,15,34,14.70
2018,07,01,15,35,14.60
2018,07,01,15,36,14.60
2018,07,01,15,37,14.70
2018,07,01,15,38,14.60
2018,07,01,15,39,14.50
2018,07,01,15,40,14.60
2018,07,01,15,41,14.70
2018,07,01,15,42,14.60
2018,07,01,15,43,14.60
2018,07,01,15,44,14.50
2018,07,01,15,45,14.60
2018,07,01,15,46,14.60
2018,07,01,15,47,14.60
2018,07,01,15,48,14.70
2018,07,01,15,49,14.80
2018,07,01,15,50,14.80
2018,07,01,15,51,14.80
2018,07,01,15,52,14.80
2018,07,01,15,53,14.80
2018,07,01,15,54,14.70
2018,07,01,15,55,14.80
2018,07,01,15,56,14.70
2018,07,01,15,57,14.70
2018,07,01,15,58,14.70
2018,07,01,15,59,14.80
2018,07,01,16,00,14.80
2018,07,01,16,01,14.80
2018,07,01,16,02,14.80
2018,07,01,16,03,14.80
2018,07,01,16,04,14.80
2018,07,01,16,05,14.90
2018,07,01,16,06,14.80
2018,07,01,16,07,14.70
2018,07,01,16,08,14.50
2018,07,01,16,09,14.60
2018,07,01,16,10,14.60
2018,07,01,16,11,14.60
2018,07,01,16,12,14.60
2018,07,01,16,13,14.60
2018,07,01,16,14,14.60
2018,07,01,16,15,14.60
2018,07,01,16,16,14.60
2018,07,01,16,17,14.70
2018,07,01,16,18,14.70
2018,07,01,16,19,14.60
2018,07,01,16,20,14.50
2018,07,01,16,21,14.60
2018,07,01,16,22,14.50
2018,07,01,16,23,14.40
2018,07,01,16,24,14.40
2018,07,01,16,25,14.50
2018,07,01,16,26,14.50
2018,07,01,16,27,14.60
2018,07,01,16,28,14.60
2018,07,01,16,29,14.50
2018,07,01,16,30,14.50
2018,07,01,16,31,14.50
2018,07,01,16,32,14.50
2018,07,01,16,33,14.60
2018,07,01,16,34,14.60
2018,07,01,16,35,14.60
2018,07,01,16,36,14.50
2018,07,01,16,37,14.60
2018,07,01,16,38,14.60
2018,07,01,16,39,14.60
2018,07,01,16,40,14.60
2018,07,01,16,41,14.60
2018,07,01,16,42,14.60
2018,07,01,16,43,14.70
2018,07,01,16,44,14.80
2018,07,01,16,45,14.70
2018,07,01,16,46,14.70
2018,07,01,16,47,14.70
2018,07,01,16,48,14.60
2018,07,01,16,49,14.60
2018,07,01,16,50,14.60
2018,07,01,16,51,14.70
2018,07,01,16,52,14.80
2018,07,01,16,53,14.80
2018,07,01,16,54,14.80
2018,07,01,16,55,14.80
2018,07,01,16,56,14.90
2018,07,01,16,57,14.90
2018,07,01,16,58,14.80
2018,07,01,16,59,14.70
2018,07,01,17,00,14.70
2018,07,01,17,01,14.60
2018,07,01,17,02,14.60
2018,07,01,17,03,14.70
2018,07,01,17,04,14.90
2018,07,01,17,05,15.10
2018,07,01,17,06,15.00
2018,07,01,17,07,14.90
2018,07,01,17,08,14.80
2018,07,01,17,09,14.90
2018,07,01,17,10,14.90
2018,07,01,17,11,14.70
2018,07,01,17,12,14.70
2018,07,01,17,13,14.60
2018,07,01,17,14,14.50
2018,07,01,17,15,14.60
2018,07,01,17,16,14.70
2018,07,01,17,17,14.50
2018,07,01,17,18,14.50
2018,07,01,17,19,14.40